www.pogodaiklimat.ru

Погода и климат >> Архив погоды >> Россия >> Забайкальский край >> Чита


АРХИВ ПОГОДЫ в Чите

Время (UTC), дата Ветер
(напр.,м/с)
 
Видим.   Явления Облачность Т
(С)
Тd
(С)
f
(%)
Тe
(С)
Тes
(С)
Комфортность P
(гПа)
Po
(гПа)
Тmin
(С)
Tmax
(С)
R
(мм)
R24
(мм)
S
(см)
15 9.07 В 1 50 км 6/0
[Ci fib]
+17.0 +12.3 74 +18 +18 по сезону 1006.8 931.3
18 9.07 В 1 50 км 4/0
[Ci fib]
+13.7 +11.3 85 +14 +14 по сезону 1008.8 932.3
21 9.07 СЗ 1 50 км 3/0
[Ci fib]
+11.9 +10.8 93 +12 +12 прохладно 1010.2 933.1
00 10.07 ЮЗ 1 20 км дым 3/0
[Ci fib]
+17.6 +12.4 72 +19 +25 тепло 1009.2 933.7 +11.8
03 10.07 З 2 20 км дым 3/3 1000 м
[Cu med, cong]
+24.8 +15.3 56 +28 +38 жарко 1006.3 932.8
06 10.07 З 3 20 км дым 8/5 600 м
[Cb cap Ci fib]
+29.5 +13.6 38 +31 +37 жарко 1003.9 931.6
09 10.07 В 2 20 км дым 3/1 1000 м
[Cu med, cong Ac trans Ci fib]
+29.6 +9.1 28 +29 +34 жарко 1003.1 930.8
12 10.07 В 3 20 км дым 6/0
[Ci sp]
+26.4 +11.5 39 +28 +28 жарко 1004.4 931.3 +30.4
15 10.07 В 1 50 км 3/0
[Ci sp]
+19.5 +13.0 66 +22 +22 комфорт 1007.5 932.6
18 10.07 С 1 50 км ясно +15.0 +12.6 86 +15 +15 по сезону 1009.4 933.3
21 10.07 В 2 50 км 3/0
[Ac trans]
+13.6 +11.9 89 +13 +13 по сезону 1010.2 933.6
00 11.07 СВ 1 50 км 10/0
[Ac trans Ci fib]
+20.6 +13.7 65 +24 +29 комфорт 1008.5 933.8 +12.5
03 11.07 С 2 50 км 10/1 1000 м
[Cu med, cong Ac trans Ci fib]
+26.7 +15.2 49 +29 +36 жарко 1006.1 933.0
06 11.07 С 4
{13}
50 км гроза без осадков 10/6 600 м
[Cb cap Ac trans Ci fib]
+23.6 +13.9 54 +26 +28 жарко 1006.5 932.6
09 11.07 ЮЗ 2 50 км гроза, ливневой дождь 10/8 600 м
[Cb cap Ac As]
+21.6 +16.9 75 +26 +26 душно 1007.0 932.8
12 11.07 ЮВ 2 50 км {гроза, ливн. осадки} 10/6 600 м
[Cb cap Ac trans Ci fib]
+19.6 +15.3 76 +22 +22 комфорт 1008.1 933.2 +30.1 0.7
15 11.07 С 1 50 км 10/8 600 м
[Cb cap Ac trans Ci fib]
+17.4 +15.7 90 +18 +18 по сезону 1008.7 933.3
18 11.07 В 1 50 км {ливн. осадки} 10/8 600 м
[Cb cap Ac As]
+16.1 +14.4 90 +17 +17 тепло 1009.3 933.5
21 11.07 СВ 1 50 км 10/8 600 м
[Cb cap Ac As]
+16.0 +14.6 91 +17 +17 тепло 1009.5 933.6
00 12.07 ЮЗ 1 20 км дым 8/1 1000 м
[Cu hum Ac trans Ci fib]
+18.0 +15.0 83 +19 +23 тепло 1009.2 933.8 +15.9 0.0
03 12.07 ЮЗ 1 50 км 3/3 1000 м
[Cu med, cong]
+23.7 +15.4 60 +27 +39 жарко 1006.7 932.9
06 12.07 ЮЗ 1 50 км 4/4 600 м
[Cb cap]
+29.7 +10.8 31 +30 +40 жарко 1003.1 930.9
09 12.07 З 2 50 км 4/4 1000 м
[Cb cap]
+30.6 +10.6 29 +31 +34 жарко 1001.4 929.5
12 12.07 С 1 50 км 10/4 600 м
[Cb cap Ac trans Ci fib]
+27.5 +13.7 43 +30 +30 жарко 1002.5 929.9 +30.8
15 12.07 штиль 0 50 км 6/0
[Ci fib]
+20.1 +14.5 70 +22 +22 комфорт 1005.4 930.8
18 12.07 В 1 50 км 3/0
[Ci fib]
+16.6 +14.4 87 +17 +17 тепло 1006.8 931.3
21 12.07 штиль 0 50 км ясно +14.4 +13.4 94 +14 +14 по сезону 1007.8 931.6
00 13.07 ЮЗ 1 50 км 3/0
[Ci fib]
+19.4 +14.9 75 +22 +29 комфорт 1006.9 932.0 +14.2
03 13.07 ЮЗ 2 50 км 8/3 1000 м
[Sc Ac trans Ci fib]
+25.8 +16.7 57 +29 +36 душно 1003.4 930.4
06 13.07 С 5 20 км гроза без осадков {ливн. осадки} 10/4 600 м
[Cb cap Ci fib]
+29.5 +12.7 36 +31 +34 жарко 1000.7 928.6
09 13.07 С 5
{10}
10 км дым {гроза} 10/5 600 м
[Cb cap Ci fib]
+28.3 +12.3 37 +29 +31 жарко 1000.9 928.5
12 13.07 С 2 20 км дым {гроза} 8/3 600 м
[Cb cap Ci fib]
+25.4 +12.3 44 +27 +27 жарко 1002.5 929.3 +29.7 0.0
15 13.07 В 2 10 км дым 4/0
[Ac trans Ci fib]
+18.4 +12.8 70 +19 +19 по сезону 1005.1 930.1
18 13.07 В 1 10 км дым 6/3 600 м
[Cb cap Ac trans Ci fib]
+15.3 +12.3 82 +16 +16 тепло 1006.8 930.9
21 13.07 СВ 1 10 км дым 6/4 600 м
[Cb cap Ci fib]
+13.6 +11.3 86 +14 +14 по сезону 1007.3 930.9
00 14.07 З 1 20 км дым 10/6 600 м
[Cb cap Ac trans Ci fib]
+18.2 +13.1 72 +20 +21 тепло 1006.2 931.1 +13.4
03 14.07 С 1 20 км дым 10/6 1000 м
[Cu med, cong Ac trans Ci fib]
+24.1 +11.7 46 +26 +29 жарко 1003.9 930.4
06 14.07 З 1 20 км дым 6/6 1000 м
[Cu med, cong]
+27.2 +10.2 34 +28 +35 жарко 1001.3 928.6
09 14.07 СЗ 2 50 км 4/4 1000 м
[Cu med, cong]
+27.7 +10.1 33 +28 +31 жарко 999.6 927.1
12 14.07 СВ 2 50 км 6/3 1000 м
[Sc diur, vesp Ci fib]
+25.4 +8.8 35 +26 +26 жарко 1000.6 927.5 +28.5
15 14.07 СВ 2 50 км 6/0
[Ci fib]
+17.4 +10.5 64 +18 +18 по сезону 1003.7 928.4
18 14.07 СВ 2 50 км 8/0
[Ac trans Ci fib]
+14.4 +10.0 75 +14 +14 по сезону 1004.7 928.6
21 14.07 штиль 0 50 км 8/0
[Ac trans Ci fib]
+14.0 +10.1 77 +14 +14 по сезону 1005.4 929.2
00 15.07 З 1 50 км 3/0
[Ci fib]
+19.5 +11.3 59 +22 +28 комфорт 1003.9 929.2 +13.8
03 15.07 СВ 2 50 км 3/0
[Ci fib]
+25.5 +10.6 39 +26 +40 жарко 1002.4 929.2
06 15.07 СВ 3 50 км 4/3 1000 м
[Cu hum Ci fib]
+28.1 +10.9 34 +29 +37 жарко 1001.2 928.7
09 15.07 ЮВ 3 50 км 10/3 1000 м
[Cu hum Ac trans Ci fib]
+27.7 +10.9 35 +28 +30 жарко 1000.7 928.2
12 15.07 ЮВ 1 50 км 9/1 1000 м
[Cu hum Ac trans Ci fib]
+26.7 +11.8 39 +28 +28 жарко 1001.9 929.0 +30.2
15 15.07 С 2 50 км 8/1 1000 м
[Cu hum Ac trans Ci fib]
+20.0 +14.0 68 +23 +23 комфорт 1005.3 930.7
18 15.07 В 2 50 км 3/0
[Ac lent]
+16.2 +11.0 71 +16 +16 тепло 1006.7 931.0
21 15.07 С 1 50 км 1/0
[Ac lent]
+13.4 +10.0 80 +14 +14 по сезону 1008.9 932.3
00 16.07 СЗ 1 50 км ясно +19.3 +11.5 61 +22 +28 комфорт 1007.7 932.7 +12.8
03 16.07 В 3 50 км 3/3 1000 м
[Cu hum]
+26.8 +9.5 34 +27 +36 жарко 1005.1 932.0
06 16.07 Ю 1 50 км 4/3 1000 м
[Cu hum Ac trans]
+29.5 +9.0 28 +29 +40 жарко 1003.5 931.1
09 16.07 ЮВ 1
{10}
50 км 4/1 1000 м
[Cu hum Ci fib]
+30.1 +9.0 27 +30 +35 жарко 1002.0 929.9
12 16.07 Ю 2 50 км 3/1 1000 м
[Cu hum Ci fib]
+27.7 +9.5 32 +28 +28 жарко 1003.5 930.7 +31.0

 

Местоположение метеостанции Чита (Забайкальский край, Россия): широта 52.08 долгота 113.40 высота над уровнем моря 671 м.

В архиве по умолчанию представлена погода в Чите за последнюю неделю. Архивные данные за месяц целиком и за предыдущие месяцы, начиная с января 2011 года, Вы можете получить, выбрав интересующий диапазон дат из раскрывающегося списка и нажав кнопку "Ввод!".


*Определитесь, кто Вы:
робот инопланетянин человек

Внимание! Время в таблицах - всемирное. Для получения местного времени необходимо прибавить поправку, которая равна 9 ч.

Смотрите также архив погоды в соседних городах и на ближайших метеорологических станциях:

Погода в Бургени (Забайкальский край, Россия) (44 км)
Погода в Беклемишево (Забайкальский край, Россия) (55 км)
Погода в Телембе (Бурятия, Россия) (75 км)
Погода в Карымской (Забайкальский край, Россия) (80 км)
Погода в Курорт-Дарасуне (Забайкальский край, Россия) (100 км)
Погода в Могзоне (Забайкальский край, Россия) (104 км)
Погода в Улетах (Забайкальский край, Россия) (106 км)
Погода в Усть-Зазе (Бурятия, Россия) (117 км)
Погода в Усугли (Забайкальский край, Россия) (132 км)
Погода в Агинском (Забайкальский край, Россия) (133 км)

Пояснения к столбцам:

Ветер - указаны скорость ветра в м/с - средняя за 10 мин, порывы в срок и между сроками (в фигурных скобках) и направление, откуда дует ветер: С - северный, СВ - северо-восточный, В - восточный, ЮВ - юго-восточный, Ю - южный, ЮЗ - юго-западный, З - западный, СЗ - северо-западный.
Видимость - горизонтальная дальность видимости в метрах или километрах. При видимости от 1 до 10 км при отсутствии осадков обычно наблюдается дымка, при ухудшении видимости до 1 км и менее - туман. В сухую погоду видимость может ухудшаться дымом, пылью или мглою.
Явления - указаны атмосферные явления, наблюдавшиеся в срок или в последний час перед сроком; фигурными скобками обозначены явления, наблюдавшиеся между сроками (за 1-3 часа до срока); квадратными скобками обозначены град или гололедные отложения с указанием их диаметра в мм.
Облачность - указаны через наклонную черту общая и нижняя облачность в баллах и высота нижней границы облаков в метрах; квадратными скобками обозначены формы облаков: Ci - перистые, Cs - перисто-слоистые, Cc - перисто-кучевые, Ac - высококучевые, As - высокослоистые, Sc - слоисто-кучевые, Ns - слоисто-дождевые, Cu - кучевые, Cb - кучево-дождевые. Подробнее классификацию облаков см. в Атласе облаков (PDF).
T - Температура воздуха - температура, измеренная на высоте 2 м над землей.
Td - Температура точки росы - температура, при понижении до которой содержащийся в воздухе водяной пар достигнет насыщения.
f - Относительная влажность воздуха - влажноcть воздуха, измеренная на высоте 2 м над землей.
Te - Эффективная температура - температура, которую ощущает одетый по сезону человек в тени. Характеристика душности погоды. При расчете учитывается влияние влажности воздуха и скорости ветра на теплоощущения человека.
Tes - Эффективная температура на солнце - температура, которую ощущает человек, с поправкой на солнечный нагрев. Характеристика знойности погоды. Зависит от высоты солнца над горизонтом, облачности и скорости ветра. Ночью, в пасмурную погоду, а также при ветре 12 м/с и более поправка равна нулю.
P - Атмосферное давление - приведенное к уровню моря атмосферное давление.
Po - Атмосферное давление - измеренное на уровне метеостанции атмосферное давление.
Tmin - Минимальная температура - минимум температуры воздуха на высоте 2 м над землей.
Tmax - Максимальная температура - максимум температуры воздуха на высоте 2 м над землей.
R - Количество осадков - Количество выпавших осадков за период времени, мм. При наведении курсора мыши на число - период времени, за который выпало указанное количество осадков.
R24 - Количество осадков - Количество выпавших осадков за 24 часа, мм.
S - Снежный покров - Высота снежного покрова, см. При наведении курсора мыши на число - состояние снежного покрова и степень покрытия местности в баллах.